This is the latest recevied weather packets stored in our database for station/object N3MFL. If no packets are shown the sender has not sent any weather packets the latest 10 day(s).
| Time | Temp. | Humidity | Pressure | Rain* | Wind** | Luminosity | Snow |
|---|---|---|---|---|---|---|---|
| 1776939758 | 6.11° C | 91% | 1013.6 hPa | 0 mm | - | 22 W/m² | - |
| 1776939456 | 6.11° C | 91% | 1013.7 hPa | 0 mm | - | 17 W/m² | - |
| 1776939154 | 6.11° C | 91% | 1013.7 hPa | 0 mm | - | 12 W/m² | - |
| 1776938850 | 6.11° C | 91% | 1013.6 hPa | 0 mm | - | 8 W/m² | - |
| 1776938548 | 6.11° C | 91% | 1013.7 hPa | 0 mm | - | 6 W/m² | - |
| 1776938246 | 6.11° C | 91% | 1013.8 hPa | 0 mm | - | 3 W/m² | - |
| 1776937942 | 6.11° C | 91% | 1013.8 hPa | 0 mm | - | 2 W/m² | - |
| 1776937639 | 6.11° C | 91% | 1014 hPa | 0 mm | - | 1 W/m² | - |
| 1776937336 | 6.11° C | 91% | 1013.8 hPa | 0 mm | - | 0 W/m² | - |
| 1776937032 | 6.11° C | 91% | 1013.9 hPa | 0 mm | - | 0 W/m² | - |
| 1776936729 | 6.11° C | 91% | 1013.9 hPa | 0 mm | - | 0 W/m² | - |
| 1776936427 | 6.11° C | 91% | 1014 hPa | 0 mm | - | 0 W/m² | - |
| 1776936123 | 6.11° C | 91% | 1014.1 hPa | 0 mm | - | 0 W/m² | - |
| 1776935822 | 6.11° C | 91% | 1014.1 hPa | 0 mm | - | 0 W/m² | - |
| 1776935517 | 6.11° C | 91% | 1014.1 hPa | 0 mm | - | 0 W/m² | - |
| 1776935215 | 6.11° C | 91% | 1014.4 hPa | 0 mm | - | 0 W/m² | - |
| 1776934910 | 6.11° C | 91% | 1014.3 hPa | 0 mm | - | 0 W/m² | - |
| 1776934607 | 6.11° C | 91% | 1014.4 hPa | 0 mm | - | 0 W/m² | - |
| 1776934305 | 6.11° C | 91% | 1014.3 hPa | 0 mm | - | 0 W/m² | - |
| 1776934002 | 6.11° C | 91% | 1014.3 hPa | 0 mm | - | 0 W/m² | - |
| 1776933698 | 6.11° C | 91% | 1014.2 hPa | 0 mm | - | 0 W/m² | - |
| 1776933395 | 6.11° C | 91% | 1014.4 hPa | 0 mm | - | 0 W/m² | - |
| 1776933092 | 6.11° C | 91% | 1014.4 hPa | 0 mm | - | 0 W/m² | - |
| 1776932786 | 6.11° C | 91% | 1014.4 hPa | 0 mm | - | 0 W/m² | - |
| 1776932483 | 6.11° C | 91% | 1014.6 hPa | 0 mm | - | 0 W/m² | - |
* Rain latest hour (hover to see other rain measurements)
** Current wind speed in m/s (hover to see current wind gust speed)